This is the latest recevied weather packets stored in our database for station/object IZ0VWB-3. If no packets are shown the sender has not sent any weather packets the latest 10 day(s).
| Time | Temp. | Humidity | Pressure | Rain* | Wind** | Luminosity | Snow |
|---|---|---|---|---|---|---|---|
| 1777411084 | 13.33° C | 56% | 1002.9 hPa | 0 mm | - | - | - |
| 1777410484 | 13.33° C | 54% | 1002.8 hPa | 0 mm | - | - | - |
| 1777409882 | 13.33° C | 54% | 1002.9 hPa | 0 mm | - | - | - |
| 1777409283 | 13.89° C | 53% | 1002.7 hPa | 0 mm | - | - | - |
| 1777408684 | 13.89° C | 53% | 1002.8 hPa | 0 mm | - | - | - |
| 1777408083 | 13.89° C | 54% | 1002.8 hPa | 0 mm | - | - | - |
| 1777407484 | 14.44° C | 54% | 1002.7 hPa | 0 mm | - | - | - |
| 1777406882 | 14.44° C | 54% | 1002.7 hPa | 0 mm | - | - | - |
| 1777406283 | 14.44° C | 54% | 1002.6 hPa | 0 mm | - | - | - |
| 1777405683 | 14.44° C | 55% | 1002.7 hPa | 0 mm | - | - | - |
| 1777405083 | 14.44° C | 55% | 1002.6 hPa | 0 mm | - | - | - |
| 1777404483 | 15° C | 56% | 1002.6 hPa | 0 mm | - | - | - |
| 1777403884 | 14.44° C | 56% | 1002.4 hPa | 0 mm | - | - | - |
| 1777403283 | 15° C | 54% | 1002.4 hPa | 0 mm | - | - | - |
| 1777402683 | 15.56° C | 53% | 1002.2 hPa | 0 mm | - | - | - |
| 1777402083 | 16.11° C | 52% | 1002.3 hPa | 0 mm | - | - | - |
| 1777401483 | 16.67° C | 51% | 1002.1 hPa | 0 mm | - | - | - |
| 1777400882 | 17.22° C | 50% | 1002 hPa | 0 mm | - | - | - |
| 1777400282 | 17.78° C | 49% | 1001.9 hPa | 0 mm | - | - | - |
| 1777399682 | 17.78° C | 49% | 1001.8 hPa | 0 mm | - | - | - |
| 1777399082 | 17.78° C | 49% | 1001.8 hPa | 0 mm | - | - | - |
| 1777398483 | 18.33° C | 48% | 1001.6 hPa | 0 mm | - | - | - |
| 1777397881 | 19.44° C | 47% | 1001.5 hPa | 0 mm | - | - | - |
| 1777397282 | 19.44° C | 46% | 1001.5 hPa | 0 mm | - | - | - |
| 1777396682 | 20° C | 44% | 1001.4 hPa | 0 mm | - | - | - |
* Rain latest hour (hover to see other rain measurements)
** Current wind speed in m/s (hover to see current wind gust speed)